SCP
0 0 0 0 0 0 0 0 0 0 0 0 0 0 0 0 0 0 0 0 0 0 0 0 0 0 0 0 1 1 0 0 0 0 0 0 0 0 0 0 0 0 0 0
0 0 0 0 0 0 0 0 0 0 0 0 0 0 0 0 0 0 0 0 0 0 0 0 0 1 1 1 1 1 1 0 0 0 0 0 0 0 0 0 0 0 0 0
0 0 0 0 0 0 0 0 0 0 0 0 0 0 0 0 0 0 0 0 0 0 0 0 0 0 1 1 1 1 1 1 0 0 0 0 0 0 0 0 0 0 0 0
0 0 0 0 0 0 0 0 0 0 0 0 0 0 0 0 0 0 0 0 0 0 0 0 0 0 0 0 0 0 0 0 0 0 0 0 0 0 0 0 0 0 0 0
0 0 0 0 0 0 0 0 0 0 0 0 0 0 0 0 0 0 0 0 0 0 0 0 0 0 0 0 0 0 0 0 0 0 0 0 0 0 0 0 0 0 0 0
0 0 0 0 0 0 0 0 0 0 0 0 0 0 0 0 0 0 0 0 0 0 0 0 0 0 0 0 0 0 0 0 0 0 0 0 0 0 0 0 0 0 0 0
0 0 0 0 0 0 0 0 0 0 0 0 0 0 0 0 0 0 0 0 0 0 0 1 1 1 1 0 0 0 0 0 0 0 0 0 0 0 0 0 0 0 0 0
0 0 0 0 0 0 0 0 0 0 0 0 0 0 0 0 0 0 0 0 0 0 0 1 1 1 1 0 0 0 0 0 0 0 0 0 0 0 0 0 0 0 0 0
0 0 0 0 0 0 0 0 0 0 0 0 0 0 0 0 0 0 0 0 0 0 0 1 1 0 0 0 0 0 0 0 0 0 0 0 0 0 0 0 0 0 0 0
0 0 0 0 0 0 0 0 0 0 0 0 0 0 0 0 0 0 0 0 0 0 0 0 0 0 0 0 0 0 0 0 0 0 0 0 0 0 0 0 0 0 0 0
0 0 0 0 0 0 0 0 0 0 0 0 0 0 0 0 0 0 0 0 0 0 0 0 0 0 0 0 0 0 0 0 0 0 0 0 0 0 0 0 0 0 0 0
0 0 0 0 0 0 0 0 0 0 0 0 0 0 0 0 0 0 0 0 0 0 0 0 0 0 0 0 0 0 0 0 0 0 0 0 0 0 0 0 0 0 0 0
0 0 0 0 0 0 0 0 0 0 0 0 0 0 0 0 0 0 0 0 0 0 0 0 0 0 0 0 0 0 0 0 0 0 0 0 0 0 0 0 0 0 0 0
0 0 0 0 0 0 0 0 0 0 0 0 0 0 0 0 0 0 0 0 0 0 0 0 0 0 0 0 0 0 0 0 0 0 0 0 0 0 0 0 0 0 0 0
0 0 0 0 0 0 0 0 0 0 0 0 0 0 0 0 0 0 0 0 0 0 0 0 0 0 0 0 0 0 0 0 0 0 0 0 0 0 0 0 0 0 0 0
0 0 0 0 0 0 0 0 0 0 0 0 0 0 0 0 0 0 0 0 0 0 0 0 0 0 0 0 0 0 0 0 0 0 0 0 0 0 0 0 0 0 0 0
0 0 0 0 0 0 0 0 0 0 0 0 0 0 0 0 0 0 0 0 0 0 0 0 0 0 0 0 0 0 0 0 0 0 0 0 0 0 0 0 0 0 0 0
0 0 0 0 0 0 0 0 0 0 0 0 0 0 0 0 0 0 0 0 0 0 0 0 0 0 0 0 0 0 0 0 0 0 0 0 0 0 0 0 0 0 0 0
0 0 0 0 0 0 0 0 0 0 0 0 0 0 0 0 0 0 0 0 0 0 0 0 0 0 0 0 0 0 0 0 0 0 0 0 0 0 0 0 0 0 0 0
0 0 0 0 0 0 0 0 0 0 0 0 0 0 0 0 0 0 0 0 0 0 0 0 0 0 0 0 0 0 0 0 0 0 0 0 0 0 0 0 0 0 0 0
0 0 0 0 0 0 0 0 0 0 0 0 0 0 0 0 0 0 0 0 0 0 0 0 0 0 0 0 0 0 0 0 0 0 0 0 0 0 0 0 0 0 0 0
0 0 0 0 0 0 0 0 0 0 0 0 0 0 0 0 0 0 0 0 0 0 0 0 0 0 0 0 0 0 0 0 0 0 0 0 0 0 0 0 0 0 0 0
0 0 0 0 0 0 0 0 0 0 0 0 0 0 0 0 0 0 0 0 0 0 0 0 0 0 0 0 0 0 0 0 0 0 0 0 0 0 0 0 0 0 0 0
0 -0 0 0 0 0 0 0 0 0 0 0 0 0 0 0 0 0 0 0 0 0 0 0 0 0 0 0 0 0 0 0 0 0 0 0 0 0 0 0 0 0 0 0
0 0 0 0 0 0 0 0 0 0 0 0 0 0 0 0 0 0 0 0 0 0 0 0 0 0 0 0 0 0 0 0 0 0 0 0 0 0 0 0 0 0 0 0
0 0 0 0 0 0 0 0 0 0 0 0 0 0 0 0 0 0 0 0 0 0 0 0 0 0 0 0 0 0 0 0 0 0 0 0 0 0 0 0 0 0 0 0
0 0 0 0 0 0 0 0 0 0 0 0 0 0 0 0 0 0 0 0 0 0 0 0 0 0 0 0 0 0 0 0 0 0 0 0 0 0 0 0 0 0 0 0
Wind_Speed
16 17 15 12 9 9 9 10 10 13 12 6 4 7 10 12 13 15 17 17 13 9 8 8 8 7 8 8 8 8 8 9 9 9 9 9 9 10 10 11 12 9 9 8
16 15 12 8 10 9 9 10 12 14 13 6 6 8 11 14 17 20 19 15 13 13 12 11 10 10 10 9 8 8 9 9 9 8 8 8 8 9 10 10 9 8 8 8
13 14 11 6 11 10 11 11 13 16 14 12 12 14 16 17 20 18 15 16 17 16 12 10 10 9 9 9 8 8 8 9 9 9 9 9 11 10 8 8 8 7 7 8
11 12 7 7 7 9 10 12 16 13 12 14 16 18 17 17 15 16 20 20 17 16 15 14 12 12 10 12 10 10 9 9 9 9 9 8 9 8 7 7 7 7 7 8
7 12 4 6 7 10 13 16 12 13 16 19 21 21 18 16 19 20 19 16 15 17 18 15 15 14 11 11 11 11 11 10 9 9 10 9 9 8 7 6 7 8 9 8
8 11 10 6 9 12 14 10 13 18 19 21 22 19 16 19 21 20 18 16 15 17 17 14 13 12 11 13 12 12 12 11 10 10 11 11 10 9 8 7 7 9 9 8
9 11 5 8 13 16 12 13 18 19 20 21 20 19 20 22 21 19 18 18 16 15 13 11 10 10 11 13 13 12 12 12 11 10 10 11 11 9 9 8 9 9 9 7
8 10 6 11 12 11 12 14 17 19 20 20 21 22 22 22 20 19 19 19 19 13 12 10 10 10 12 12 12 12 12 13 13 11 12 13 9 8 8 8 8 8 8 8
6 7 8 8 10 11 14 16 17 19 20 21 22 23 23 22 19 19 19 17 16 15 13 11 10 10 13 13 12 14 14 15 14 14 12 11 11 10 9 8 7 8 7 6
7 8 11 12 13 15 16 17 18 20 21 22 23 24 24 21 19 18 18 17 15 15 16 15 14 14 13 14 14 14 15 14 13 12 12 11 9 8 8 8 7 6 6 5
9 11 13 12 15 17 17 18 19 20 21 22 23 23 22 19 18 17 17 15 15 15 16 18 17 16 16 15 14 15 15 14 13 12 11 10 9 8 9 7 6 6 4 4
8 11 12 15 16 17 18 19 20 21 21 22 21 22 22 20 17 17 18 17 17 17 18 19 19 18 17 15 14 14 13 13 10 9 8 8 8 8 10 9 8 7 5 3
8 12 13 15 16 17 18 20 21 21 21 21 21 20 21 19 18 19 19 18 17 18 19 19 19 19 18 16 15 14 13 12 9 8 8 7 7 6 5 5 6 7 7 8
9 11 14 14 16 17 19 20 20 21 20 20 20 20 20 19 20 20 19 17 18 19 19 19 18 18 17 16 14 13 12 11 9 7 7 6 6 6 5 5 6 5 6 8
10 11 13 14 15 17 18 19 20 20 20 20 20 19 20 20 20 19 18 17 18 19 19 18 17 17 16 14 12 11 8 6 5 5 5 5 5 5 4 5 5 5 6 6
11 12 13 14 16 17 19 20 20 20 20 20 20 20 19 19 18 18 17 17 18 19 19 17 16 15 14 12 10 8 5 5 4 3 3 4 4 4 4 4 4 5 5 7
11 12 13 15 16 17 18 19 19 19 19 20 20 20 19 19 18 18 18 18 18 17 16 15 15 15 13 11 9 6 4 2 3 3 2 2 3 3 3 4 4 4 5 8
9 11 12 14 15 16 17 18 18 19 18 19 19 19 19 18 18 18 18 18 17 16 15 15 16 16 12 10 8 5 4 3 1 1 1 2 2 3 3 4 4 5 6 9
9 11 12 13 14 14 15 16 17 17 17 17 18 18 17 17 17 17 17 17 16 15 16 17 19 15 10 9 10 5 4 4 3 2 2 2 2 2 2 3 4 6 8 9
9 10 12 13 14 14 14 15 16 15 15 16 17 17 17 17 17 17 16 14 12 12 16 17 15 12 10 9 10 5 4 4 2 1 1 1 1 2 2 3 5 7 8 9
9 11 12 13 13 14 14 15 14 15 15 15 16 16 16 16 17 15 14 12 14 16 17 16 10 9 10 11 11 5 3 2 2 1 1 1 1 2 3 5 6 7 8 9
8 9 11 12 13 13 13 12 13 14 15 15 15 15 16 16 16 15 13 10 13 18 15 10 10 12 15 14 7 5 3 2 2 1 1 1 2 3 4 6 6 8 8 8
6 8 9 10 11 12 12 12 13 12 14 15 14 14 15 13 11 12 13 12 13 19 14 10 16 20 19 10 6 4 3 2 1 1 2 2 3 4 6 7 7 8 7 8
6 7 8 9 10 11 11 12 12 10 12 13 12 12 12 11 11 10 9 14 17 18 13 13 18 20 16 8 6 5 3 2 1 1 2 3 4 5 6 7 7 7 7 9
5 7 8 8 9 8 9 10 11 11 12 11 13 14 11 9 10 11 11 13 17 17 13 14 17 18 12 9 8 6 4 3 3 1 2 4 5 6 6 7 7 8 8 7
5 6 5 6 5 5 7 8 8 9 9 11 11 11 11 10 11 11 11 13 17 16 13 11 13 13 10 10 9 8 6 4 2 2 3 3 4 5 6 7 9 7 7 6
6 5 3 3 5 6 7 7 8 8 9 10 11 11 11 12 12 13 14 12 12 12 12 12 11 11 11 10 10 9 7 6 4 3 2 3 3 4 5 7 6 6 6 6
Wind_Direction
315 313 316 318 339 3 3 349 334 331 336 348 345 334 328 324 324 321 316 313 317 320 318 310 302 292 288 284 279 276 271 267 265 262 260 259 259 260 261 260 264 265 271 279
306 310 314 341 23 10 358 347 335 325 326 352 336 329 327 329 326 316 314 323 328 322 317 312 307 301 294 288 282 272 268 269 269 267 268 267 266 264 261 260 262 265 270 279
308 310 308 43 24 8 352 344 336 322 330 347 336 330 329 328 315 315 334 330 320 315 310 303 299 293 287 289 285 283 279 277 276 273 273 271 275 277 276 280 282 281 283 284
303 319 354 68 33 7 340 331 330 334 351 342 329 327 324 313 324 339 328 320 316 312 308 302 299 297 294 293 288 283 279 278 276 274 274 272 272 273 274 277 281 282 277 276
324 335 5 103 37 1 335 321 9 358 340 332 330 320 312 330 337 323 316 314 312 308 304 301 298 295 290 290 289 286 284 280 279 277 277 273 272 272 273 271 273 272 271 265
325 325 334 55 12 346 319 300 17 347 335 331 326 317 321 328 319 315 316 311 304 301 298 295 295 295 292 290 288 286 286 284 283 278 277 275 274 273 272 267 266 268 267 262
333 318 16 30 351 342 324 334 340 332 328 325 322 314 313 316 316 314 309 306 303 299 297 295 294 290 285 288 288 289 291 292 289 284 280 274 268 264 263 264 265 263 266 266
334 324 13 7 350 347 324 325 328 327 325 320 316 314 313 313 313 311 309 308 307 303 298 294 294 295 297 297 297 297 294 290 285 279 276 276 268 265 263 260 261 259 258 259
333 319 340 351 340 339 339 332 328 325 322 319 316 314 314 314 312 311 311 310 310 308 306 310 317 317 307 303 300 296 290 284 280 276 269 266 264 263 261 256 252 252 251 248
316 318 348 347 347 344 339 329 325 323 320 317 315 315 315 314 314 314 315 317 319 320 321 321 318 312 302 298 293 289 285 283 279 274 268 263 255 251 249 247 245 244 249 245
313 348 340 336 342 335 328 327 323 320 319 318 317 316 317 317 318 321 323 327 329 327 322 316 312 304 299 294 290 285 282 279 277 271 266 262 257 246 244 241 238 238 241 235
330 341 326 325 331 329 329 325 323 322 321 320 320 320 322 322 326 328 329 330 328 323 317 311 307 301 298 292 285 280 278 275 269 263 259 253 251 252 234 228 219 208 194 174
333 332 324 323 325 330 324 324 325 324 323 324 326 327 327 330 331 331 330 329 324 317 311 307 303 299 296 291 286 279 273 271 266 259 253 248 242 238 230 206 196 191 179 162
337 332 324 324 327 327 327 326 326 324 326 329 329 332 334 333 331 330 328 324 318 312 308 305 303 301 300 297 291 284 278 272 263 253 244 239 237 232 215 198 186 185 178 168
338 329 322 325 326 329 328 328 328 329 331 332 335 337 336 334 332 328 324 320 317 313 312 312 309 308 308 306 301 297 289 276 263 250 237 229 226 219 207 198 188 174 153 146
325 324 327 329 330 330 331 331 331 331 334 336 338 338 337 335 330 325 323 322 321 319 318 318 318 318 320 318 316 312 302 280 267 257 233 220 211 196 184 179 174 169 163 152
326 328 332 332 331 331 332 332 333 333 336 338 338 338 337 334 329 327 325 325 321 317 319 323 324 326 327 329 330 326 322 300 249 256 237 195 167 166 166 166 166 159 154 152
326 328 331 331 332 331 332 334 335 336 337 338 340 339 337 334 331 328 326 325 324 324 331 332 332 330 330 342 337 334 335 334 300 314 93 115 134 147 155 156 156 150 138 145
327 329 334 336 336 334 333 334 336 335 338 343 343 339 335 333 330 328 328 328 330 333 336 335 330 327 333 351 341 330 342 359 21 54 92 121 140 131 140 149 145 145 143 150
327 334 339 337 338 337 335 337 335 336 344 346 342 338 336 335 332 332 331 329 331 334 330 328 327 330 337 346 336 326 343 358 14 35 67 113 128 141 151 151 146 146 144 151
332 338 339 336 336 337 338 336 335 342 347 347 342 339 337 334 333 335 332 332 334 335 330 322 327 336 340 332 316 318 337 343 342 351 14 72 115 130 133 136 140 144 145 152
336 335 334 334 334 335 334 333 341 346 348 345 342 342 339 337 337 336 335 335 331 332 330 328 337 336 331 321 316 329 338 339 341 10 89 106 124 135 137 143 147 150 151 156
332 331 331 330 332 327 329 339 347 351 349 345 343 344 343 337 338 338 336 335 334 332 331 335 335 333 329 324 326 335 344 354 345 51 103 118 128 136 145 150 150 151 153 157
320 326 323 325 323 323 335 343 350 353 349 344 345 349 345 340 340 341 331 329 336 334 335 334 333 336 334 333 339 346 356 22 68 113 131 135 138 144 148 148 149 155 161 160
311 311 310 322 322 332 338 345 350 352 349 348 349 353 351 347 344 339 336 338 343 341 340 339 339 340 345 348 353 356 5 23 30 39 108 128 143 147 148 151 155 160 162 160
279 284 303 304 317 335 346 350 348 350 351 352 350 352 350 351 350 345 342 345 347 345 346 345 345 347 350 353 354 358 10 25 34 50 94 122 134 137 146 152 150 149 152 155
252 262 267 318 357 4 353 349 348 351 1 357 348 352 353 355 353 349 350 350 349 349 349 349 350 351 353 357 358 2 12 21 28 44 79 102 117 129 138 143 145 147 151 155